Weather History for KULM - February, 2014

Change the Weather History Date:

Tuesday, February 18, 2014

  Actual Average Record
Temperature  
Mean Temperature 28 °F -  
Max Temperature 37 °F 30 °F 62 °F (1981)
Min Temperature 19 °F 16 °F -15 °F (1958)
Degree Days  
Heating Degree Days 37    
Moisture  
Dew Point 25 °F    
Average Humidity 81    
Maximum Humidity 93    
Minimum Humidity 70    
Precipitation  
Precipitation 0.00 in - - ()
Sea Level Pressure  
Sea Level Pressure 29.64 in    
Wind  
Wind Speed 10 mph (WSW)    
Max Wind Speed 21 mph    
Max Gust Speed 29 mph    
Visibility 10 miles    
Events      
Averages and records for this station are not official NWS values.
T = Trace of Precipitation, MM = Missing Value Source: NWS Daily Summary

Daily Weather History Graph

Daily Weather History Graph

Search for Another Location

Airport or City:

Trip Planner

Search our weather history database for the weather conditions in past years. The results will help you decide how hot, cold, wet, or windy it might be!

Date:

Astronomy

Feb. 18, 2014 Rise Set
Actual Time 7:13 AM CST 5:51 PM CST
Civil Twilight 6:43 AM CST 6:21 PM CST
Nautical Twilight 6:09 AM CST 6:54 PM CST
Astronomical Twilight 5:36 AM CST 7:28 PM CST
Moon 9:56 PM CST (2/18) 8:36 AM CST (2/18)
Length of Visible Light 11h 37m
Length of Day
10h 38m
Waning Gibbous, 87% of the Moon is Illuminated
Feb 18
Waning Gibbous
Feb 22
Last Quarter
Mar 1
New
Mar 8
First Quarter
Mar 16
Full

Hourly Weather History & Observations

Time (CST) Temp. Windchill Dew Point Humidity Pressure Visibility Wind Dir Wind Speed Gust Speed Precip Events Conditions
12:13 AM 26.6 °F 17.5 °F 21.2 °F 80% 29.72 in 10.0 mi South 9.2 mph - N/A   Clear
12:33 AM 28.4 °F 19.7 °F 21.2 °F 74% 29.71 in 10.0 mi South 9.2 mph - N/A   Clear
12:52 AM 26.6 °F 17.5 °F 21.2 °F 80% 29.70 in 10.0 mi SSE 9.2 mph - N/A   Clear
1:13 AM 26.6 °F 18.2 °F 21.2 °F 80% 29.69 in 10.0 mi South 8.1 mph - N/A   Clear
1:33 AM 26.6 °F 16.8 °F 21.2 °F 80% 29.68 in 10.0 mi SSE 10.4 mph - N/A   Clear
1:52 AM 28.4 °F 19.1 °F 21.2 °F 74% 29.67 in 10.0 mi SSE 10.4 mph - N/A   Clear
2:13 AM 28.4 °F 18.0 °F 21.2 °F 74% 29.65 in 10.0 mi SSE 12.7 mph - N/A   Clear
2:33 AM 28.4 °F 18.5 °F 21.2 °F 74% 29.64 in 10.0 mi SSE 11.5 mph - N/A   Clear
2:52 AM 28.4 °F 18.0 °F 21.2 °F 74% 29.62 in 10.0 mi SSE 12.7 mph - N/A   Clear
3:13 AM 28.4 °F 18.0 °F 21.2 °F 74% 29.61 in 10.0 mi SSE 12.7 mph - N/A   Clear
3:33 AM 26.6 °F 15.7 °F 21.2 °F 80% 29.60 in 10.0 mi SSE 12.7 mph - N/A   Clear
3:52 AM 26.6 °F 15.7 °F 21.2 °F 80% 29.58 in 10.0 mi SSE 12.7 mph - N/A   Clear
4:13 AM 24.8 °F 14.0 °F 19.4 °F 80% 29.58 in 10.0 mi South 11.5 mph - N/A   Clear
4:33 AM 24.8 °F 16.1 °F 19.4 °F 80% 29.58 in 10.0 mi SSE 8.1 mph - N/A   Clear
4:52 AM 23.0 °F 13.1 °F 19.4 °F 86% 29.57 in 10.0 mi South 9.2 mph - N/A   Clear
5:13 AM 21.2 °F 11.7 °F 17.6 °F 86% 29.57 in 10.0 mi South 8.1 mph - N/A   Clear
5:33 AM 21.2 °F 10.9 °F 17.6 °F 86% 29.56 in 10.0 mi South 9.2 mph - N/A   Clear
5:52 AM 21.2 °F 11.7 °F 17.6 °F 86% 29.55 in 10.0 mi South 8.1 mph - N/A   Clear
6:13 AM 21.2 °F 11.7 °F 17.6 °F 86% 29.54 in 10.0 mi South 8.1 mph - N/A   Clear
6:32 AM 21.2 °F 12.6 °F 17.6 °F 86% 29.54 in 10.0 mi South 6.9 mph - N/A   Clear
6:53 AM 21.2 °F 11.7 °F 17.6 °F 86% 29.54 in 10.0 mi South 8.1 mph - N/A   Clear
7:13 AM 19.4 °F 9.5 °F 17.6 °F 93% 29.54 in 10.0 mi South 8.1 mph - N/A   Clear
7:32 AM 21.2 °F 11.7 °F 17.6 °F 86% 29.54 in 10.0 mi South 8.1 mph - N/A   Clear
7:53 AM 21.2 °F 16.4 °F 17.6 °F 86% 29.54 in 10.0 mi SSE 3.5 mph - N/A   Clear
8:13 AM 21.2 °F 12.6 °F 17.6 °F 86% 29.54 in 10.0 mi South 6.9 mph - N/A   Clear
8:32 AM 21.2 °F 16.4 °F 17.6 °F 86% 29.55 in 10.0 mi SSW 3.5 mph - N/A   Clear
8:53 AM 24.8 °F 16.9 °F 19.4 °F 80% 29.55 in 10.0 mi SSW 6.9 mph - N/A   Clear
9:13 AM 26.6 °F 21.2 °F 21.2 °F 80% 29.54 in 10.0 mi SSW 4.6 mph - N/A   Clear
9:33 AM 26.6 °F 19.1 °F 21.2 °F 80% 29.54 in 10.0 mi SSW 6.9 mph - N/A   Clear
9:53 AM 28.4 °F 21.2 °F 23.0 °F 80% 29.54 in 10.0 mi SW 6.9 mph - N/A   Clear
10:13 AM 28.4 °F 22.2 °F 23.0 °F 80% 29.55 in 10.0 mi WSW 5.8 mph - N/A   Clear
10:32 AM 30.2 °F 23.4 °F 24.8 °F 80% 29.55 in 10.0 mi SW 6.9 mph - N/A   Clear
10:53 AM 33.8 °F 26.4 °F 26.6 °F 75% 29.55 in 10.0 mi West 9.2 mph - N/A   Clear
11:13 AM 33.8 °F 25.8 °F 26.6 °F 75% 29.56 in 10.0 mi West 10.4 mph - N/A   Clear
11:32 AM 33.8 °F 26.4 °F 26.6 °F 75% 29.56 in 10.0 mi West 9.2 mph - N/A   Clear
11:53 AM 33.8 °F 27.0 °F 28.4 °F 81% 29.57 in 10.0 mi West 8.1 mph - N/A   Clear
12:12 PM 35.6 °F 28.6 °F 28.4 °F 75% 29.57 in 10.0 mi West 9.2 mph - N/A   Clear
12:33 PM 35.6 °F 28.6 °F 28.4 °F 75% 29.57 in 10.0 mi West 9.2 mph - N/A   Clear
12:53 PM 35.6 °F 28.6 °F 28.4 °F 75% 29.56 in 10.0 mi West 9.2 mph - N/A   Clear
1:12 PM 35.6 °F 28.6 °F 28.4 °F 75% 29.57 in 10.0 mi West 9.2 mph - N/A   Clear
1:33 PM 37.4 °F 31.4 °F 28.4 °F 70% 29.57 in 10.0 mi West 8.1 mph - N/A   Clear
1:53 PM 37.4 °F 30.8 °F 30.2 °F 75% 29.58 in 10.0 mi West 9.2 mph - N/A   Clear
2:13 PM 35.6 °F 28.6 °F 30.2 °F 81% 29.58 in 10.0 mi West 9.2 mph - N/A   Scattered Clouds
2:33 PM 35.6 °F 27.1 °F 28.4 °F 75% 29.58 in 10.0 mi WNW 12.7 mph - N/A   Scattered Clouds
2:53 PM 35.6 °F 28.0 °F 28.4 °F 75% 29.59 in 10.0 mi WNW 10.4 mph - N/A   Scattered Clouds
3:12 PM 35.6 °F 28.6 °F 30.2 °F 81% 29.58 in 10.0 mi WNW 9.2 mph - N/A   Mostly Cloudy
3:33 PM 35.6 °F 28.0 °F 30.2 °F 81% 29.60 in 10.0 mi WNW 10.4 mph - N/A   Overcast
3:53 PM 37.4 °F 27.2 °F 28.4 °F 70% 29.61 in 10.0 mi NW 19.6 mph - N/A   Overcast
4:12 PM 37.4 °F 29.8 °F 30.2 °F 75% 29.63 in 10.0 mi NW 11.5 mph - N/A   Mostly Cloudy
4:33 PM 37.4 °F 26.9 °F 28.4 °F 70% 29.63 in 10.0 mi NW 20.7 mph 24.2 mph N/A   Scattered Clouds
4:53 PM 37.4 °F 30.3 °F 30.2 °F 75% 29.65 in 10.0 mi WNW 10.4 mph - N/A   Clear
5:12 PM 37.4 °F 26.9 °F 30.2 °F 75% 29.67 in 10.0 mi NW 20.7 mph 28.8 mph N/A   Clear
5:33 PM 37.4 °F 27.5 °F 30.2 °F 75% 29.68 in 10.0 mi NW 18.4 mph 23.0 mph N/A   Clear
5:53 PM 37.4 °F 28.2 °F 30.2 °F 75% 29.68 in 10.0 mi NW 16.1 mph 21.9 mph N/A   Scattered Clouds
6:12 PM 37.4 °F 27.8 °F 30.2 °F 75% 29.70 in 10.0 mi NW 17.3 mph - N/A   Scattered Clouds
6:33 PM 37.4 °F 27.2 °F 30.2 °F 75% 29.71 in 10.0 mi NW 19.6 mph 24.2 mph N/A   Light Drizzle
6:52 PM 35.6 °F 25.2 °F 30.2 °F 81% 29.72 in 10.0 mi NW 18.4 mph - N/A   Scattered Clouds
7:13 PM 35.6 °F 27.1 °F 30.2 °F 81% 29.73 in 10.0 mi WNW 12.7 mph - N/A   Mostly Cloudy
7:33 PM 35.6 °F 27.1 °F 30.2 °F 81% 29.75 in 10.0 mi WNW 12.7 mph - N/A   Overcast
7:53 PM 33.8 °F 25.3 °F 30.2 °F 87% 29.76 in 10.0 mi WNW 11.5 mph - N/A   Scattered Clouds
8:13 PM 33.8 °F 25.8 °F 30.2 °F 87% 29.77 in 10.0 mi WNW 10.4 mph - N/A   Scattered Clouds
8:33 PM 33.8 °F 25.8 °F 32.0 °F 93% 29.77 in 10.0 mi WNW 10.4 mph - N/A   Scattered Clouds
8:52 PM 33.8 °F 25.3 °F 30.2 °F 87% 29.77 in 10.0 mi WNW 11.5 mph - N/A   Scattered Clouds
9:13 PM 33.8 °F 25.8 °F 30.2 °F 87% 29.78 in 10.0 mi WNW 10.4 mph - N/A   Clear
9:33 PM 32.0 °F 23.6 °F 28.4 °F 87% 29.78 in 10.0 mi West 10.4 mph - N/A   Clear
9:52 PM 32.0 °F 22.5 °F 28.4 °F 87% 29.80 in 10.0 mi West 12.7 mph - N/A   Clear
10:13 PM 30.2 °F 21.3 °F 28.4 °F 93% 29.80 in 10.0 mi West 10.4 mph - N/A   Clear
10:33 PM 30.2 °F 20.8 °F 28.4 °F 93% 29.80 in 10.0 mi West 11.5 mph - N/A   Clear
10:52 PM 30.2 °F 20.8 °F 28.4 °F 93% 29.80 in 10.0 mi WNW 11.5 mph - N/A   Clear
11:13 PM 28.4 °F 19.7 °F 26.6 °F 93% 29.80 in 10.0 mi WNW 9.2 mph - N/A   Clear
11:33 PM 28.4 °F 19.7 °F 26.6 °F 93% 29.80 in 10.0 mi West 9.2 mph - N/A   Clear
11:52 PM 28.4 °F 19.7 °F 26.6 °F 93% 29.80 in 10.0 mi West 9.2 mph - N/A   Clear